Location: Buckhorn Peak
(37.6641°N, 120.1241°W)
Time: 14:59:45
(UTC+00:00)

Transit 2A Rocket - Visible Passes

Search period start: 09 December 2025 00:00
Search period end: 19 December 2025 00:00
Orbit: 580 x 903 km, 66.7° (Epoch: 09 December)

Date Brightness Start Highest point End Pass type
(mag) Time Alt. Az. Time Alt. Az. Time Alt. Az.
09 Dec 5.1 02:17:10 10° NNW 02:23:09 67° ENE 02:28:45 10° SE visible
09 Dec 7.7 04:01:15 10° WNW 04:04:52 17° WSW 04:08:21 10° SW visible
10 Dec 5.7 01:31:54 10° NNW 01:37:29 39° NE 01:42:45 10° ESE visible
10 Dec 6.9 03:14:37 10° NW 03:19:46 32° WSW 03:24:37 10° SSW visible
11 Dec 5.8 02:28:40 10° NW 02:34:30 58° WSW 02:39:57 10° S visible
12 Dec 5.2 01:43:04 10° NNW 01:49:04 79° ENE 01:54:40 10° SSE visible
12 Dec 8.1 03:27:53 10° WNW 03:30:37 14° W 03:33:16 10° SW visible
13 Dec 7.4 02:40:47 10° NW 02:45:33 26° WSW 02:50:03 10° SSW visible
14 Dec 6.3 01:54:40 10° NW 02:00:20 48° WSW 02:05:37 10° S visible
15 Dec 5.3 01:08:58 10° NNW 01:14:57 87° WSW 01:20:30 10° SSE visible
15 Dec 8.6 02:55:10 10° W 02:56:20 11° W 02:57:30 10° WSW visible
15 Dec 8.5 14:00:26 10° SE 14:02:40 12° E 14:04:58 10° ENE visible
16 Dec 7.9 02:07:00 10° WNW 02:11:18 21° WSW 02:15:23 10° SSW visible
17 Dec 6.8 01:20:42 10° NW 01:26:08 40° WSW 01:31:13 10° S visible
17 Dec 7.4 14:08:48 10° SSE 14:13:28 30° ESE 14:18:27 10° NE visible
18 Dec 8.3 13:25:11 10° SE 13:28:22 16° ESE 13:31:41 10° ENE visible
